Current weather by "City, St" or "zip code"  
 

Current Conditions: George M Bryan Airport, Starkville, MS

Mostly Cloudy


72.0 F

Last Updated on May 21 2022, 4:35 am CDT
Humidity: 100%
Wind Speed: S 5.8 mph
Barometer 29.96 in
Dewpoint: 71.6 F
Visibility: 9.00 mi
Precip: --
Heat Index: NA
Wind Chill: NA
Current conditions at:

George M Bryan Airport, Starkville, MS (KSTF)

Lat: 33.4331 Lon: 88.8486

Local Radar Image active severe weather and emergency alerts image image weather storm and storm spotter reports image weather observation monitoring service image
Local
Radar
Active
Alerts
Storm Reports Obs
Monitoring

Sign-up For Email & Text Message Weather Alert Notification Services



Advertise Here

Observation History for George M Bryan Airport, Starkville, MS


Time Wind
(mph)
Vis
(mi)
Weather Precip (in) Temperature (F) Relative
Humidity
Wind
Chill
(F)
Heat
Index
(F)
Pressure
Air Dwpt altimeter
(in)
sea level
(mb)
Rmks
4:35 am CDT S 5.8 9.00 Mostly Cloudy -- 72.0 71.6 100% NA NA 29.96 M
4:15 am CDT S 6.9 10.00 Fair -- 72.0 71.6 100% NA NA 29.96 M
3:55 am CDT SE 6.9 10.00 A Few Clouds -- 72.0 69.8 94% NA NA 29.96 M
3:35 am CDT SE 6.9 10.00 Fair -- 72.0 69.8 94% NA NA 29.95 M
3:15 am CDT SE 6.9 10.00 Fair -- 72.0 69.8 94% NA NA 29.95 M
2:55 am CDT SE 6.9 10.00 Fair -- 72.0 69.8 94% NA NA 29.94 M
2:35 am CDT SE 6.9 10.00 Fair -- 73.0 69.8 89% NA NA 29.94 M
2:15 am CDT SE 5.8 10.00 Fair -- 72.0 69.8 94% NA NA 29.94 M
1:55 am CDT S 4.6 10.00 Fair -- 72.0 69.8 94% NA NA 29.93 M
1:35 am CDT S 4.6 10.00 Fair -- 72.0 69.8 94% NA NA 29.93 M
1:15 am CDT SE 4.6 9.00 Fair -- 73.0 69.8 89% NA NA 29.93 M
12:55 am CDT S 4.6 10.00 Fair -- 73.0 69.8 89% NA NA 29.93 M
12:15 am CDT S 4.6 10.00 Fair -- 73.0 71.6 94% NA NA 29.92 M
11:55 pm CDT S 4.6 10.00 Fair -- 73.0 69.8 89% NA NA 29.91 M
11:35 pm CDT S 4.6 10.00 Fair -- 73.0 69.8 89% NA NA 29.91 M
11:15 pm CDT S 6.9 10.00 Fair -- 75.0 69.8 83% NA NA 29.91 M
10:55 pm CDT S 3.5 10.00 Fair -- 73.0 69.8 89% NA NA 29.90 M
10:35 pm CDT S 3.5 10.00 Fair -- 75.0 71.6 89% NA NA 29.89 M
9:55 pm CDT N 0.0 10.00 Fair -- 75.0 69.8 83% NA NA 29.88 M
9:15 pm CDT S 3.5 10.00 Fair -- 75.0 68.0 78% NA NA 29.86 M
8:55 pm CDT N 0.0 10.00 Fair -- 77.0 68.0 74% NA NA 29.85 M
8:35 pm CDT S 3.5 10.00 Fair -- 77.0 68.0 74% NA NA 29.84 M
8:15 pm CDT N 0.0 10.00 Fair -- 79.0 68.0 70% NA NA 29.84 M
7:50 pm CDT N 0.0 10.00 Fair -- 81.0 68.0 66% NA 84 29.84 M

Regional Weather Observation


Columbus/West Point/Starkville, Golden Triangle Regional Airport, MS (KGTR)

Overcast
73.0 F

Monroe County Airport, MS (KM40)

Mostly Cloudy
73.0 F

Columbus Air Force Base, MS (KCBM)

Partly Cloudy
73.0 F

Winona-Montgomery County Airport, MS (K5A6)

Mostly Cloudy
73.0 F

Tupelo, Tupelo Regional Airport, MS (KTUP)

Fair
74.0 F

Oxford, University-Oxford Airport, MS (KUOX)

Fair
72.0 F

Advertise Here


Advertise Here